Location: Follega
(52.8850°N, 5.7362°E)
Time: 22:00:46
(UTC+00:00)

STARLINK-1236 - Pass Details

Date: 04 October 2020
Orbit: 548 x 551 km, 53.0° (Epoch: 26 October)

Event Time Altitude Azimuth Distance (km) Brightness Sun altitude
Exits shadow 04:34:31 16° 250° (WSW) 1,476 5.2 -11.3°
Maximum altitude 04:36:06 20° 221° (SW) 1,317 5.1 -11.1°
Drops below altitude 10° 04:39:07 10° 174° (S) 1,822 6.3 -10.6°
Sets 04:41:47 0° 157° (SSE) 2,712 7.4 -10.2°
